| time (UTC) | temp F | wind direction | speed MPH | gust MPH | rain 1hr in | rain 24hr in | rain mn in | humidity % | barometer mb |
| 20260507083529 | 56 | 347 | 2.0 | 5.0 | 0.00 | 0.00 | 0.00 | 70 | 1017.3 |
| 20260507083029 | 56 | 4 | 2.0 | 4.0 | 0.00 | 0.00 | 0.00 | 70 | 1017.3 |
| 20260507082530 | 56 | 339 | 2.0 | 4.0 | 0.00 | 0.00 | 0.00 | 70 | 1017.3 |
| 20260507082029 | 55 | 351 | 2.0 | 5.0 | 0.00 | 0.00 | 0.00 | 70 | 1017.3 |
| 20260507081529 | 54 | 3 | 2.0 | 4.0 | 0.00 | 0.00 | 0.00 | 71 | 1017.3 |
| 20260507081029 | 55 | 4 | 4.0 | 6.0 | 0.00 | 0.00 | 0.00 | 71 | 1017.3 |
| 20260507080529 | 55 | 334 | 2.0 | 4.0 | 0.00 | 0.00 | 0.00 | 70 | 1017.2 |
| 20260507080029 | 54 | 54 | 2.0 | 4.0 | 0.00 | 0.00 | 0.00 | 72 | 1017.2 |
| 20260507075529 | 54 | 341 | 3.0 | 6.0 | 0.00 | 0.00 | 0.00 | 74 | 1017.1 |
| 20260507075029 | 54 | 5 | 3.0 | 5.0 | 0.00 | 0.00 | 0.00 | 74 | 1017.1 |
| 20260507074541 | 54 | 324 | 2.0 | 4.0 | 0.00 | 0.00 | 0.00 | 74 | 1017.1 |
| 20260507074029 | 53 | 1 | 2.0 | 4.0 | 0.00 | 0.00 | 0.00 | 75 | 1017.1 |
| 20260507073529 | 53 | 354 | 3.0 | 6.0 | 0.00 | 0.00 | 0.00 | 75 | 1017.1 |
| 20260507073024 | 53 | 15 | 3.0 | 5.0 | 0.00 | 0.00 | 0.00 | 75 | 1017.0 |
| 20260507072525 | 53 | 11 | 3.0 | 5.0 | 0.00 | 0.00 | 0.00 | 75 | 1017.0 |
| 20260507072030 | 53 | 349 | 2.0 | 5.0 | 0.00 | 0.00 | 0.00 | 77 | 1017.0 |
| 20260507071529 | 53 | 357 | 2.0 | 5.0 | 0.00 | 0.00 | 0.00 | 80 | 1017.0 |
| 20260507071029 | 53 | 344 | 2.0 | 4.0 | 0.00 | 0.00 | 0.00 | 79 | 1016.9 |
| 20260507070530 | 52 | 350 | 2.0 | 5.0 | 0.00 | 0.00 | 0.00 | 82 | 1017.0 |
| 20260507070029 | 52 | 356 | 2.0 | 4.0 | 0.00 | 0.00 | 0.00 | 82 | 1017.0 |
| 20260507065529 | 52 | 14 | 2.0 | 3.0 | 0.00 | 0.00 | 0.00 | 82 | 1017.0 |
| 20260507065032 | 51 | 358 | 2.0 | 2.0 | 0.00 | 0.00 | 0.00 | 83 | 1017.0 |
| 20260507064524 | 51 | 18 | 2.0 | 3.0 | 0.00 | 0.00 | 0.00 | 83 | 1017.0 |
| 20260507064037 | 51 | 346 | 1.0 | 3.0 | 0.00 | 0.00 | 0.00 | 83 | 1016.9 |
| 20260507063529 | 51 | 335 | 1.0 | 4.0 | 0.00 | 0.00 | 0.00 | 84 | 1016.9 |
| 20260507063029 | 51 | 345 | 1.0 | 4.0 | 0.00 | 0.00 | 0.00 | 83 | 1016.8 |
| 20260507062529 | 51 | 334 | 1.0 | 3.0 | 0.00 | 0.00 | 0.00 | 83 | 1016.8 |
| 20260507062029 | 50 | 332 | 1.0 | 3.0 | 0.00 | 0.00 | 0.00 | 84 | 1016.7 |
| 20260507061529 | 49 | 357 | 1.0 | 3.0 | 0.00 | 0.00 | 0.00 | 86 | 1016.7 |
| 20260507061029 | 49 | 2 | 2.0 | 4.0 | 0.00 | 0.00 | 0.00 | 86 | 1016.8 |
| 20260507060526 | 49 | 355 | 2.0 | 3.0 | 0.00 | 0.00 | 0.00 | 86 | 1016.7 |
| 20260507060029 | 48 | 354 | 0.0 | 0.0 | 0.00 | 0.00 | 0.00 | 87 | 1016.7 |
| 20260507055524 | 47 | 354 | 0.0 | 0.0 | 0.00 | 0.00 | 0.00 | 90 | 1016.6 |
| 20260507055029 | 47 | 354 | 0.0 | 0.0 | 0.00 | 0.00 | 0.00 | 91 | 1016.6 |
| 20260507054529 | 47 | 354 | 0.0 | 0.0 | 0.00 | 0.00 | 0.00 | 91 | 1016.6 |
| 20260507054029 | 47 | 354 | 0.0 | 0.0 | 0.00 | 0.00 | 0.00 | 91 | 1016.5 |
| 20260507053529 | 46 | 354 | 0.0 | 0.0 | 0.00 | 0.00 | 0.00 | 91 | 1016.5 |
| 20260507053023 | 46 | 354 | 0.0 | 0.0 | 0.00 | 0.00 | 0.00 | 90 | 1016.4 |
| 20260507052529 | 46 | 354 | 0.0 | 0.0 | 0.00 | 0.00 | 0.00 | 90 | 1016.4 |
| 20260507052029 | 46 | 354 | 0.0 | 0.0 | 0.00 | 0.00 | 0.00 | 90 | 1016.3 |
| 20260507051530 | 46 | 354 | 0.0 | 0.0 | 0.00 | 0.00 | 0.00 | 90 | 1016.3 |
| 20260507051041 | 46 | 354 | 0.0 | 0.0 | 0.00 | 0.00 | 0.00 | 89 | 1016.3 |
| 20260507050529 | 46 | 354 | 0.0 | 0.0 | 0.00 | 0.00 | 0.00 | 89 | 1016.2 |
| 20260507050033 | 46 | 354 | 0.0 | 0.0 | 0.00 | 0.00 | 0.00 | 89 | 1016.2 |
| 20260507045529 | 46 | 354 | 0.0 | 0.0 | 0.00 | 0.00 | 0.00 | 89 | 1016.1 |
| 20260507045022 | 46 | 354 | 0.0 | 0.0 | 0.00 | 0.00 | 0.00 | 89 | 1016.0 |
| 20260507044554 | 46 | 354 | 0.0 | 0.0 | 0.00 | 0.00 | 0.00 | 88 | 1016.0 |
| 20260507044031 | 46 | 354 | 0.0 | 0.0 | 0.00 | 0.00 | 0.00 | 88 | 1016.0 |
| 20260507043536 | 47 | 354 | 0.0 | 0.0 | 0.00 | 0.00 | 0.00 | 88 | 1015.9 |
| 20260507043029 | 47 | 354 | 0.0 | 0.0 | 0.00 | 0.00 | 0.00 | 88 | 1015.8 |
| 20260507042529 | 47 | 357 | 1.0 | 2.0 | 0.00 | 0.00 | 0.00 | 87 | 1015.8 |
| 20260507042029 | 47 | 13 | 1.0 | 2.0 | 0.00 | 0.00 | 0.00 | 87 | 1015.8 |
| 20260507041529 | 47 | 358 | 2.0 | 4.0 | 0.00 | 0.00 | 0.00 | 87 | 1015.8 |
| 20260507041023 | 47 | 340 | 1.0 | 2.0 | 0.00 | 0.00 | 0.00 | 88 | 1015.7 |
| 20260507040531 | 47 | 335 | 1.0 | 2.0 | 0.00 | 0.00 | 0.00 | 88 | 1015.7 |
| 20260507040029 | 47 | 335 | 1.0 | 4.0 | 0.00 | 0.00 | 0.00 | 88 | 1015.7 |
| 20260507035529 | 47 | 354 | 0.0 | 0.0 | 0.00 | 0.00 | 0.00 | 89 | 1015.6 |
| 20260507035029 | 47 | 10 | 0.0 | 0.0 | 0.00 | 0.00 | 0.00 | 89 | 1015.6 |
| 20260507034542 | 47 | 346 | 0.0 | 0.0 | 0.00 | 0.00 | 0.00 | 89 | 1015.6 |
| 20260507034030 | 47 | 322 | 0.0 | 0.0 | 0.00 | 0.00 | 0.00 | 90 | 1015.5 |
| 20260507033529 | 47 | 346 | 0.0 | 0.0 | 0.00 | 0.00 | 0.00 | 90 | 1015.5 |
| 20260507033029 | 47 | 342 | 0.0 | 0.0 | 0.00 | 0.00 | 0.00 | 90 | 1015.4 |
| 20260507032529 | 47 | 347 | 0.0 | 0.0 | 0.00 | 0.00 | 0.00 | 90 | 1015.4 |
| 20260507032029 | 48 | 336 | 0.0 | 2.0 | 0.00 | 0.00 | 0.00 | 90 | 1015.4 |
| 20260507031529 | 48 | 336 | 2.0 | 3.0 | 0.00 | 0.00 | 0.00 | 90 | 1015.4 |
| 20260507031029 | 48 | 348 | 1.0 | 2.0 | 0.00 | 0.00 | 0.00 | 89 | 1015.4 |
| 20260507030529 | 48 | 350 | 1.0 | 4.0 | 0.00 | 0.00 | 0.00 | 89 | 1015.3 |
| 20260507030038 | 48 | 351 | 1.0 | 4.0 | 0.00 | 0.00 | 0.00 | 88 | 1015.3 |
| 20260507025529 | 48 | 338 | 1.0 | 2.0 | 0.00 | 0.00 | 0.00 | 88 | 1015.3 |
| 20260507025026 | 48 | 319 | 0.0 | 2.0 | 0.00 | 0.00 | 0.00 | 88 | 1015.2 |
| 20260507024529 | 49 | 318 | 0.0 | 0.0 | 0.00 | 0.00 | 0.00 | 88 | 1015.2 |
| 20260507024030 | 49 | 317 | 1.0 | 3.0 | 0.00 | 0.00 | 0.00 | 87 | 1015.2 |
| 20260507023529 | 49 | 336 | 0.0 | 3.0 | 0.00 | 0.00 | 0.00 | 87 | 1015.2 |
| 20260507023033 | 49 | 351 | 1.0 | 2.0 | 0.00 | 0.00 | 0.00 | 88 | 1015.2 |
| 20260507022529 | 49 | 358 | 0.0 | 2.0 | 0.00 | 0.00 | 0.00 | 89 | 1015.2 |
| 20260507022029 | 49 | 353 | 0.0 | 2.0 | 0.00 | 0.00 | 0.00 | 88 | 1015.1 |
| 20260507021521 | 49 | 352 | 1.0 | 2.0 | 0.00 | 0.00 | 0.00 | 88 | 1015.0 |
| 20260507021032 | 49 | 353 | 0.0 | 2.0 | 0.00 | 0.00 | 0.00 | 88 | 1015.0 |
| 20260507020535 | 49 | 343 | 2.0 | 4.0 | 0.00 | 0.00 | 0.00 | 87 | 1014.9 |
| 20260507020029 | 50 | 352 | 0.0 | 0.0 | 0.00 | 0.00 | 0.00 | 87 | 1014.8 |
| 20260507015529 | 50 | 353 | 1.0 | 4.0 | 0.00 | 0.00 | 0.00 | 87 | 1014.8 |
| 20260507015029 | 50 | 348 | 1.0 | 2.0 | 0.00 | 0.00 | 0.00 | 87 | 1014.8 |
| 20260507014529 | 50 | 342 | 0.0 | 2.0 | 0.00 | 0.00 | 0.00 | 87 | 1014.8 |
| 20260507014031 | 50 | 30 | 0.0 | 3.0 | 0.00 | 0.00 | 0.00 | 86 | 1014.8 |
| 20260507013530 | 50 | 1 | 2.0 | 4.0 | 0.00 | 0.00 | 0.00 | 86 | 1014.8 |
| 20260507013021 | 50 | 8 | 1.0 | 3.0 | 0.00 | 0.00 | 0.00 | 86 | 1014.8 |
| 20260507012529 | 50 | 5 | 1.0 | 4.0 | 0.00 | 0.00 | 0.00 | 85 | 1014.8 |
| 20260507012029 | 50 | 358 | 2.0 | 4.0 | 0.00 | 0.00 | 0.00 | 85 | 1014.7 |
| 20260507011529 | 51 | 333 | 1.0 | 4.0 | 0.00 | 0.00 | 0.00 | 85 | 1014.7 |
| 20260507011029 | 51 | 332 | 1.0 | 3.0 | 0.00 | 0.00 | 0.00 | 85 | 1014.7 |
| 20260507010529 | 51 | 330 | 1.0 | 4.0 | 0.00 | 0.00 | 0.00 | 85 | 1014.7 |
| 20260507010029 | 51 | 343 | 2.0 | 4.0 | 0.00 | 0.00 | 0.00 | 85 | 1014.7 |
| 20260507005526 | 51 | 352 | 2.0 | 3.0 | 0.00 | 0.00 | 0.00 | 85 | 1014.7 |
| 20260507005031 | 51 | 353 | 1.0 | 3.0 | 0.00 | 0.00 | 0.00 | 85 | 1014.6 |
| 20260507004529 | 51 | 354 | 0.0 | 2.0 | 0.00 | 0.00 | 0.00 | 85 | 1014.6 |
| 20260507004029 | 51 | 353 | 1.0 | 3.0 | 0.00 | 0.00 | 0.00 | 84 | 1014.5 |
| 20260507003529 | 51 | 346 | 1.0 | 4.0 | 0.00 | 0.00 | 0.00 | 84 | 1014.5 |
| 20260507003033 | 51 | 1 | 1.0 | 2.0 | 0.00 | 0.00 | 0.00 | 82 | 1014.5 |
| 20260507002529 | 52 | 348 | 1.0 | 3.0 | 0.00 | 0.00 | 0.00 | 81 | 1014.5 |
| 20260507002029 | 52 | 342 | 2.0 | 3.0 | 0.00 | 0.00 | 0.00 | 80 | 1014.5 |
| 20260507001525 | 52 | 344 | 1.0 | 4.0 | 0.00 | 0.00 | 0.00 | 79 | 1014.5 |
| 20260507001033 | 52 | 1 | 1.0 | 3.0 | 0.00 | 0.00 | 0.00 | 79 | 1014.5 |
| 20260507000542 | 52 | 12 | 1.0 | 4.0 | 0.00 | 0.00 | 0.00 | 80 | 1014.5 |
| 20260507000029 | 52 | 16 | 1.0 | 4.0 | 0.00 | 0.00 | 0.00 | 80 | 1014.6 |
| 20260506235525 | 52 | 0 | 1.0 | 2.0 | 0.00 | 0.00 | 0.00 | 80 | 1014.5 |
| 20260506235029 | 52 | 12 | 2.0 | 3.0 | 0.00 | 0.00 | 0.00 | 80 | 1014.5 |
| 20260506234529 | 52 | 339 | 1.0 | 3.0 | 0.00 | 0.00 | 0.00 | 80 | 1014.4 |
| 20260506234021 | 52 | 344 | 1.0 | 4.0 | 0.00 | 0.00 | 0.00 | 79 | 1014.4 |
| 20260506233529 | 52 | 333 | 1.0 | 3.0 | 0.00 | 0.00 | 0.00 | 80 | 1014.3 |
| 20260506233029 | 52 | 306 | 0.0 | 2.0 | 0.00 | 0.00 | 0.00 | 80 | 1014.2 |
| 20260506232542 | 52 | 13 | 1.0 | 2.0 | 0.00 | 0.00 | 0.00 | 80 | 1014.1 |
| 20260506232031 | 52 | 351 | 2.0 | 3.0 | 0.00 | 0.00 | 0.00 | 81 | 1014.2 |
| 20260506231529 | 52 | 1 | 2.0 | 4.0 | 0.00 | 0.00 | 0.00 | 81 | 1014.1 |
| 20260506231031 | 52 | 353 | 2.0 | 5.0 | 0.00 | 0.00 | 0.00 | 81 | 1014.1 |
| 20260506230531 | 52 | 347 | 0.0 | 4.0 | 0.00 | 0.00 | 0.00 | 82 | 1014.1 |
| 20260506230021 | 52 | 10 | 0.0 | 0.0 | 0.00 | 0.00 | 0.00 | 82 | 1014.1 |
| 20260506225537 | 52 | 354 | 1.0 | 4.0 | 0.00 | 0.00 | 0.00 | 81 | 1014.1 |
| 20260506225029 | 52 | 6 | 1.0 | 2.0 | 0.00 | 0.00 | 0.00 | 81 | 1014.0 |
| 20260506224529 | 52 | 6 | 0.0 | 3.0 | 0.00 | 0.00 | 0.00 | 80 | 1014.1 |
| 20260506224029 | 52 | 6 | 0.0 | 2.0 | 0.00 | 0.00 | 0.00 | 80 | 1014.0 |
| 20260506223529 | 52 | 6 | 0.0 | 0.0 | 0.00 | 0.00 | 0.00 | 80 | 1014.0 |
| 20260506223029 | 52 | 6 | 0.0 | 0.0 | 0.00 | 0.00 | 0.00 | 80 | 1014.0 |
| 20260506222529 | 52 | 6 | 0.0 | 0.0 | 0.00 | 0.00 | 0.00 | 79 | 1014.0 |
| 20260506222025 | 52 | 6 | 0.0 | 0.0 | 0.00 | 0.00 | 0.00 | 78 | 1014.0 |
| 20260506221530 | 52 | 6 | 0.0 | 0.0 | 0.00 | 0.00 | 0.00 | 77 | 1014.0 |
| 20260506221037 | 53 | 6 | 0.0 | 0.0 | 0.00 | 0.00 | 0.00 | 77 | 1014.0 |
| 20260506220532 | 53 | 6 | 0.0 | 2.0 | 0.00 | 0.00 | 0.00 | 76 | 1014.0 |
| 20260506220025 | 53 | 10 | 0.0 | 2.0 | 0.00 | 0.00 | 0.00 | 76 | 1014.0 |
| 20260506215529 | 53 | 10 | 0.0 | 0.0 | 0.00 | 0.00 | 0.00 | 75 | 1013.9 |
| 20260506215029 | 53 | 4 | 1.0 | 2.0 | 0.00 | 0.00 | 0.00 | 75 | 1013.9 |
| 20260506214529 | 53 | 344 | 1.0 | 3.0 | 0.00 | 0.00 | 0.00 | 75 | 1013.9 |
| 20260506214029 | 52 | 352 | 1.0 | 3.0 | 0.00 | 0.00 | 0.00 | 75 | 1013.9 |
| 20260506213533 | 52 | 354 | 1.0 | 4.0 | 0.00 | 0.00 | 0.00 | 77 | 1013.9 |
| 20260506213029 | 52 | 311 | 0.0 | 0.0 | 0.00 | 0.00 | 0.00 | 78 | 1013.8 |
| 20260506212542 | 52 | 308 | 0.0 | 0.0 | 0.00 | 0.00 | 0.00 | 78 | 1013.8 |
| 20260506212037 | 52 | 306 | 0.0 | 0.0 | 0.00 | 0.00 | 0.00 | 78 | 1013.7 |
| 20260506211529 | 52 | 306 | 0.0 | 0.0 | 0.00 | 0.00 | 0.00 | 79 | 1013.7 |
| 20260506211100 | 52 | 306 | 0.0 | 0.0 | 0.00 | 0.00 | 0.00 | 79 | 1013.7 |
| 20260506210529 | 52 | 306 | 0.0 | 0.0 | 0.00 | 0.00 | 0.00 | 79 | 1013.6 |
| 20260506210025 | 52 | 306 | 0.0 | 0.0 | 0.00 | 0.00 | 0.00 | 80 | 1013.5 |
| 20260506205529 | 52 | 306 | 0.0 | 0.0 | 0.00 | 0.00 | 0.00 | 79 | 1013.5 |
| 20260506205029 | 52 | 306 | 0.0 | 0.0 | 0.00 | 0.00 | 0.00 | 79 | 1013.5 |
| 20260506204529 | 52 | 306 | 0.0 | 0.0 | 0.00 | 0.00 | 0.00 | 78 | 1013.4 |
| 20260506204029 | 52 | 306 | 0.0 | 0.0 | 0.00 | 0.00 | 0.00 | 77 | 1013.4 |
| 20260506203529 | 52 | 306 | 0.0 | 0.0 | 0.00 | 0.00 | 0.00 | 77 | 1013.5 |
| 20260506203048 | 53 | 306 | 0.0 | 0.0 | 0.00 | 0.00 | 0.00 | 77 | 1013.5 |
| 20260506202529 | 53 | 306 | 0.0 | 0.0 | 0.00 | 0.00 | 0.00 | 75 | 1013.4 |
| 20260506202029 | 53 | 308 | 0.0 | 0.0 | 0.00 | 0.00 | 0.00 | 74 | 1013.4 |
| 20260506201529 | 53 | 308 | 0.0 | 0.0 | 0.00 | 0.00 | 0.00 | 74 | 1013.3 |
| 20260506201030 | 53 | 308 | 0.0 | 0.0 | 0.00 | 0.00 | 0.00 | 73 | 1013.4 |
| 20260506200529 | 53 | 308 | 0.0 | 0.0 | 0.00 | 0.00 | 0.00 | 73 | 1013.4 |
| 20260506200029 | 53 | 305 | 0.0 | 0.0 | 0.00 | 0.00 | 0.00 | 72 | 1013.3 |
| 20260506195529 | 53 | 308 | 0.0 | 0.0 | 0.00 | 0.00 | 0.00 | 72 | 1013.3 |
| 20260506195029 | 53 | 308 | 0.0 | 0.0 | 0.00 | 0.00 | 0.00 | 71 | 1013.3 |
| 20260506194523 | 53 | 308 | 0.0 | 0.0 | 0.00 | 0.00 | 0.00 | 71 | 1013.2 |
| 20260506194029 | 53 | 300 | 0.0 | 0.0 | 0.00 | 0.00 | 0.00 | 71 | 1013.2 |
| 20260506193529 | 53 | 300 | 0.0 | 2.0 | 0.00 | 0.00 | 0.00 | 71 | 1013.2 |
| 20260506193046 | 53 | 299 | 1.0 | 3.0 | 0.00 | 0.00 | 0.00 | 70 | 1013.1 |
| 20260506192529 | 53 | 228 | 0.0 | 1.0 | 0.00 | 0.00 | 0.00 | 71 | 1013.1 |
| 20260506192029 | 53 | 228 | 0.0 | 0.0 | 0.00 | 0.00 | 0.00 | 71 | 1013.0 |
| 20260506191529 | 53 | 228 | 0.0 | 0.0 | 0.00 | 0.00 | 0.00 | 70 | 1012.9 |
| 20260506191021 | 53 | 228 | 0.0 | 0.0 | 0.00 | 0.00 | 0.00 | 70 | 1012.8 |
| 20260506190526 | 53 | 230 | 0.0 | 1.0 | 0.00 | 0.00 | 0.00 | 70 | 1012.7 |
| 20260506190033 | 54 | 230 | 0.0 | 0.0 | 0.00 | 0.00 | 0.00 | 69 | 1012.7 |
| 20260506185530 | 54 | 230 | 1.0 | 2.0 | 0.00 | 0.00 | 0.00 | 69 | 1012.7 |
| 20260506185024 | 54 | 228 | 0.0 | 2.0 | 0.00 | 0.00 | 0.00 | 68 | 1012.6 |
| 20260506184529 | 54 | 230 | 0.0 | 2.0 | 0.00 | 0.00 | 0.00 | 68 | 1012.5 |
| 20260506184029 | 54 | 216 | 0.0 | 2.0 | 0.00 | 0.00 | 0.00 | 68 | 1012.5 |
| 20260506183529 | 54 | 353 | 1.0 | 3.0 | 0.00 | 0.00 | 0.00 | 68 | 1012.4 |
| 20260506183032 | 54 | 342 | 1.0 | 3.0 | 0.00 | 0.00 | 0.00 | 68 | 1012.4 |
| 20260506182542 | 54 | 278 | 1.0 | 2.0 | 0.00 | 0.00 | 0.00 | 67 | 1012.3 |
| 20260506182059 | 54 | 316 | 0.0 | 0.0 | 0.00 | 0.00 | 0.00 | 67 | 1012.3 |
| 20260506181544 | 54 | 305 | 0.0 | 2.0 | 0.00 | 0.00 | 0.00 | 67 | 1012.2 |
| 20260506181035 | 54 | 310 | 1.0 | 3.0 | 0.00 | 0.00 | 0.00 | 67 | 1012.2 |
| 20260506180529 | 54 | 322 | 1.0 | 3.0 | 0.00 | 0.00 | 0.00 | 66 | 1012.1 |
| 20260506180029 | 54 | 317 | 1.0 | 2.0 | 0.00 | 0.00 | 0.00 | 66 | 1012.0 |
| 20260506175530 | 54 | 316 | 1.0 | 2.0 | 0.00 | 0.00 | 0.00 | 66 | 1012.0 |
| 20260506175029 | 54 | 267 | 2.0 | 3.0 | 0.00 | 0.00 | 0.00 | 65 | 1011.9 |
| 20260506174548 | 54 | 53 | 2.0 | 3.0 | 0.00 | 0.00 | 0.00 | 66 | 1011.9 |
| 20260506174035 | 54 | 122 | 1.0 | 3.0 | 0.00 | 0.00 | 0.00 | 65 | 1011.8 |
| 20260506173523 | 54 | 141 | 0.0 | 2.0 | 0.00 | 0.00 | 0.00 | 66 | 1011.8 |
| 20260506173029 | 54 | 166 | 1.0 | 2.0 | 0.00 | 0.00 | 0.00 | 65 | 1011.8 |
| 20260506172529 | 54 | 340 | 2.0 | 5.0 | 0.00 | 0.00 | 0.00 | 64 | 1011.7 |
| 20260506172035 | 54 | 2 | 2.0 | 5.0 | 0.00 | 0.00 | 0.00 | 64 | 1011.7 |
| 20260506171525 | 54 | 353 | 3.0 | 5.0 | 0.00 | 0.00 | 0.00 | 65 | 1011.7 |
| 20260506171046 | 55 | 339 | 2.0 | 5.0 | 0.00 | 0.00 | 0.00 | 66 | 1011.7 |
| 20260506170533 | 55 | 332 | 2.0 | 5.0 | 0.00 | 0.00 | 0.00 | 66 | 1011.6 |
| 20260506170029 | 55 | 331 | 3.0 | 5.0 | 0.00 | 0.00 | 0.00 | 65 | 1011.6 |
| 20260506165529 | 55 | 349 | 3.0 | 6.0 | 0.00 | 0.00 | 0.00 | 65 | 1011.5 |
| 20260506165045 | 55 | 15 | 2.0 | 5.0 | 0.00 | 0.00 | 0.00 | 65 | 1011.5 |
| 20260506164529 | 55 | 352 | 3.0 | 5.0 | 0.00 | 0.00 | 0.00 | 65 | 1011.5 |
| 20260506164033 | 55 | 338 | 2.0 | 5.0 | 0.00 | 0.00 | 0.00 | 65 | 1011.5 |
| 20260506163535 | 55 | 327 | 2.0 | 6.0 | 0.00 | 0.00 | 0.00 | 65 | 1011.5 |
| 20260506163025 | 55 | 355 | 3.0 | 6.0 | 0.00 | 0.00 | 0.00 | 65 | 1011.4 |
| 20260506162559 | 55 | 345 | 3.0 | 6.0 | 0.00 | 0.00 | 0.00 | 65 | 1011.4 |
| 20260506162029 | 55 | 353 | 2.0 | 5.0 | 0.00 | 0.00 | 0.00 | 65 | 1011.4 |
| 20260506161530 | 55 | 3 | 3.0 | 5.0 | 0.00 | 0.00 | 0.00 | 65 | 1011.4 |
| 20260506161107 | 55 | 360 | 3.0 | 6.0 | 0.00 | 0.00 | 0.00 | 64 | 1011.4 |
| 20260506160529 | 55 | 355 | 3.0 | 5.0 | 0.00 | 0.00 | 0.00 | 64 | 1011.4 |
| 20260506160024 | 55 | 350 | 3.0 | 7.0 | 0.00 | 0.00 | 0.00 | 63 | 1011.4 |
| 20260506155529 | 56 | 353 | 3.0 | 5.0 | 0.00 | 0.00 | 0.00 | 62 | 1011.4 |
| 20260506155030 | 55 | 0 | 3.0 | 6.0 | 0.00 | 0.00 | 0.00 | 62 | 1011.4 |
| 20260506154534 | 56 | 353 | 4.0 | 9.0 | 0.00 | 0.00 | 0.00 | 61 | 1011.4 |
| 20260506154025 | 56 | 348 | 4.0 | 7.0 | 0.00 | 0.00 | 0.00 | 61 | 1011.4 |
| 20260506153529 | 56 | 358 | 3.0 | 5.0 | 0.00 | 0.00 | 0.00 | 62 | 1011.4 |
| 20260506153042 | 56 | 0 | 4.0 | 6.0 | 0.00 | 0.00 | 0.00 | 61 | 1011.4 |
| 20260506152529 | 56 | 346 | 4.0 | 8.0 | 0.00 | 0.00 | 0.00 | 61 | 1011.4 |
| 20260506152029 | 56 | 350 | 4.0 | 8.0 | 0.00 | 0.00 | 0.00 | 60 | 1011.4 |
| 20260506151529 | 57 | 346 | 4.0 | 10.0 | 0.00 | 0.00 | 0.00 | 59 | 1011.3 |
| 20260506151024 | 57 | 0 | 3.0 | 5.0 | 0.00 | 0.00 | 0.00 | 58 | 1011.3 |
| 20260506150533 | 57 | 357 | 3.0 | 6.0 | 0.00 | 0.00 | 0.00 | 57 | 1011.2 |
| 20260506150034 | 57 | 357 | 4.0 | 6.0 | 0.00 | 0.00 | 0.00 | 58 | 1011.2 |
| 20260506145529 | 57 | 339 | 3.0 | 5.0 | 0.00 | 0.00 | 0.00 | 57 | 1011.2 |
| 20260506145042 | 58 | 341 | 4.0 | 6.0 | 0.00 | 0.00 | 0.00 | 56 | 1011.1 |
| 20260506144529 | 58 | 343 | 4.0 | 10.0 | 0.00 | 0.00 | 0.00 | 56 | 1011.0 |
| 20260506144030 | 57 | 343 | 4.0 | 7.0 | 0.00 | 0.00 | 0.00 | 56 | 1011.1 |
| 20260506143529 | 57 | 325 | 4.0 | 6.0 | 0.00 | 0.00 | 0.00 | 56 | 1011.1 |
| 20260506143026 | 57 | 343 | 4.0 | 6.0 | 0.00 | 0.00 | 0.00 | 57 | 1011.1 |
| 20260506142607 | 57 | 345 | 4.0 | 11.0 | 0.00 | 0.00 | 0.00 | 57 | 1011.1 |
| 20260506142029 | 57 | 356 | 3.0 | 6.0 | 0.00 | 0.00 | 0.00 | 58 | 1011.1 |
| 20260506141529 | 57 | 344 | 3.0 | 5.0 | 0.00 | 0.00 | 0.00 | 59 | 1011.0 |
| 20260506141031 | 57 | 338 | 4.0 | 6.0 | 0.00 | 0.00 | 0.00 | 61 | 1011.0 |
| 20260506140529 | 57 | 360 | 2.0 | 5.0 | 0.00 | 0.00 | 0.00 | 62 | 1011.0 |
| 20260506140029 | 57 | 347 | 2.0 | 5.0 | 0.00 | 0.00 | 0.00 | 62 | 1011.0 |
| 20260506135521 | 57 | 359 | 3.0 | 6.0 | 0.00 | 0.00 | 0.00 | 62 | 1011.0 |
| 20260506135029 | 57 | 10 | 3.0 | 7.0 | 0.00 | 0.00 | 0.00 | 64 | 1011.0 |
| 20260506134529 | 57 | 339 | 3.0 | 5.0 | 0.00 | 0.00 | 0.00 | 64 | 1010.9 |
| 20260506134029 | 58 | 339 | 3.0 | 5.0 | 0.00 | 0.00 | 0.00 | 63 | 1010.9 |
| 20260506133533 | 57 | 348 | 3.0 | 6.0 | 0.00 | 0.00 | 0.00 | 64 | 1010.9 |
| 20260506133029 | 57 | 359 | 4.0 | 6.0 | 0.00 | 0.00 | 0.00 | 63 | 1010.9 |
| 20260506132530 | 58 | 339 | 4.0 | 6.0 | 0.00 | 0.00 | 0.00 | 62 | 1010.8 |
| 20260506132029 | 59 | 356 | 4.0 | 7.0 | 0.00 | 0.00 | 0.00 | 60 | 1010.8 |
| 20260506131522 | 59 | 344 | 3.0 | 5.0 | 0.00 | 0.00 | 0.00 | 61 | 1010.8 |
| 20260506131031 | 59 | 353 | 3.0 | 5.0 | 0.00 | 0.00 | 0.00 | 60 | 1010.8 |
| 20260506130529 | 58 | 349 | 4.0 | 6.0 | 0.00 | 0.00 | 0.00 | 62 | 1010.7 |
| 20260506130033 | 58 | 3 | 4.0 | 6.0 | 0.00 | 0.00 | 0.00 | 62 | 1010.7 |
| 20260506125532 | 59 | 348 | 4.0 | 7.0 | 0.00 | 0.00 | 0.00 | 62 | 1010.7 |
| 20260506125021 | 58 | 346 | 3.0 | 6.0 | 0.00 | 0.00 | 0.00 | 62 | 1010.6 |
| 20260506124538 | 58 | 344 | 4.0 | 7.0 | 0.00 | 0.00 | 0.00 | 63 | 1010.6 |
| 20260506124033 | 57 | 2 | 3.0 | 5.0 | 0.00 | 0.00 | 0.00 | 64 | 1010.6 |
| 20260506123527 | 57 | 359 | 4.0 | 8.0 | 0.00 | 0.00 | 0.00 | 65 | 1010.6 |
| 20260506123032 | 58 | 345 | 3.0 | 6.0 | 0.00 | 0.00 | 0.00 | 66 | 1010.5 |
| 20260506122533 | 58 | 4 | 4.0 | 6.0 | 0.00 | 0.00 | 0.00 | 64 | 1010.5 |
| 20260506122032 | 58 | 357 | 4.0 | 11.0 | 0.00 | 0.00 | 0.00 | 64 | 1010.5 |
| 20260506121529 | 58 | 358 | 4.0 | 6.0 | 0.00 | 0.00 | 0.00 | 64 | 1010.5 |
| 20260506121030 | 58 | 356 | 3.0 | 5.0 | 0.00 | 0.00 | 0.00 | 63 | 1010.4 |
| 20260506120533 | 57 | 359 | 3.0 | 6.0 | 0.00 | 0.00 | 0.00 | 64 | 1010.4 |
| 20260506120032 | 57 | 350 | 4.0 | 8.0 | 0.00 | 0.00 | 0.00 | 67 | 1010.4 |
| 20260506115533 | 58 | 356 | 5.0 | 9.0 | 0.00 | 0.00 | 0.00 | 65 | 1010.4 |
| 20260506115033 | 59 | 348 | 3.0 | 5.0 | 0.00 | 0.00 | 0.00 | 59 | 1010.3 |
| 20260506114533 | 59 | 336 | 3.0 | 7.0 | 0.00 | 0.00 | 0.00 | 59 | 1010.3 |
| 20260506114033 | 58 | 8 | 4.0 | 7.0 | 0.00 | 0.00 | 0.00 | 59 | 1010.3 |
| 20260506113532 | 58 | 347 | 4.0 | 7.0 | 0.00 | 0.00 | 0.00 | 59 | 1010.3 |
| 20260506113034 | 58 | 355 | 3.0 | 6.0 | 0.00 | 0.00 | 0.00 | 61 | 1010.3 |
| 20260506112535 | 58 | 350 | 3.0 | 7.0 | 0.00 | 0.00 | 0.00 | 61 | 1010.3 |
| 20260506112032 | 58 | 354 | 3.0 | 6.0 | 0.00 | 0.00 | 0.00 | 61 | 1010.3 |
| 20260506111527 | 59 | 332 | 4.0 | 11.0 | 0.00 | 0.00 | 0.00 | 58 | 1010.3 |
| 20260506111038 | 60 | 351 | 4.0 | 8.0 | 0.00 | 0.00 | 0.00 | 56 | 1010.3 |
| 20260506110529 | 60 | 340 | 3.0 | 6.0 | 0.00 | 0.00 | 0.00 | 58 | 1010.2 |
| 20260506110034 | 60 | 342 | 4.0 | 7.0 | 0.00 | 0.00 | 0.00 | 59 | 1010.2 |
| 20260506105525 | 60 | 14 | 2.0 | 5.0 | 0.00 | 0.00 | 0.00 | 60 | 1010.2 |
| 20260506105032 | 59 | 353 | 3.0 | 6.0 | 0.00 | 0.00 | 0.00 | 61 | 1010.3 |
| 20260506104533 | 58 | 355 | 3.0 | 7.0 | 0.00 | 0.00 | 0.00 | 63 | 1010.3 |
| 20260506104024 | 58 | 343 | 4.0 | 7.0 | 0.00 | 0.00 | 0.00 | 63 | 1010.3 |
| 20260506103532 | 59 | 338 | 4.0 | 7.0 | 0.00 | 0.00 | 0.00 | 62 | 1010.3 |
| 20260506103030 | 58 | 357 | 3.0 | 7.0 | 0.00 | 0.00 | 0.00 | 63 | 1010.3 |
| 20260506102545 | 58 | 360 | 4.0 | 6.0 | 0.00 | 0.00 | 0.00 | 64 | 1010.2 |
| 20260506102034 | 57 | 8 | 3.0 | 5.0 | 0.00 | 0.00 | 0.00 | 65 | 1010.2 |
| 20260506101532 | 57 | 358 | 3.0 | 6.0 | 0.00 | 0.00 | 0.00 | 67 | 1010.2 |
| 20260506101030 | 57 | 344 | 4.0 | 7.0 | 0.00 | 0.00 | 0.00 | 67 | 1010.2 |
| 20260506100532 | 57 | 348 | 3.0 | 7.0 | 0.00 | 0.00 | 0.00 | 67 | 1010.1 |
| 20260506100024 | 57 | 2 | 3.0 | 10.0 | 0.00 | 0.00 | 0.00 | 71 | 1010.1 |
| 20260506095532 | 57 | 346 | 3.0 | 6.0 | 0.00 | 0.00 | 0.00 | 73 | 1010.1 |
| 20260506095037 | 57 | 3 | 3.0 | 6.0 | 0.00 | 0.00 | 0.00 | 73 | 1010.1 |
| 20260506094533 | 56 | 341 | 3.0 | 5.0 | 0.00 | 0.00 | 0.00 | 74 | 1010.0 |
| 20260506094024 | 56 | 344 | 3.0 | 6.0 | 0.00 | 0.00 | 0.00 | 74 | 1010.1 |
| 20260506093530 | 56 | 349 | 3.0 | 5.0 | 0.00 | 0.00 | 0.00 | 75 | 1010.1 |
| 20260506093033 | 56 | 332 | 3.0 | 5.0 | 0.00 | 0.00 | 0.00 | 76 | 1010.1 |
| 20260506092533 | 56 | 352 | 3.0 | 6.0 | 0.00 | 0.00 | 0.00 | 76 | 1010.0 |
| 20260506092025 | 56 | 353 | 4.0 | 7.0 | 0.00 | 0.00 | 0.00 | 74 | 1010.0 |
| 20260506091534 | 56 | 352 | 5.0 | 10.0 | 0.00 | 0.00 | 0.00 | 74 | 1010.0 |
| 20260506091032 | 56 | 353 | 4.0 | 7.0 | 0.00 | 0.00 | 0.00 | 74 | 1010.0 |
| 20260506090530 | 56 | 339 | 4.0 | 6.0 | 0.00 | 0.00 | 0.00 | 73 | 1010.0 |
| 20260506090034 | 56 | 355 | 3.0 | 5.0 | 0.00 | 0.00 | 0.00 | 75 | 1010.0 |
| 20260506085532 | 56 | 348 | 4.0 | 5.0 | 0.00 | 0.00 | 0.00 | 75 | 1009.9 |
| 20260506085058 | 55 | 357 | 3.0 | 6.0 | 0.00 | 0.00 | 0.00 | 80 | 1009.9 |
| 20260506084532 | 55 | 352 | 3.0 | 6.0 | 0.00 | 0.00 | 0.00 | 81 | 1009.9 |
| 20260506084026 | 55 | 358 | 3.0 | 6.0 | 0.00 | 0.00 | 0.00 | 82 | 1009.9 |